[[{"header":{"parameterUnit":"m.s-1","parameterCategory":1,"la1":30.2991,"la2":30.254,"lo1":-89.0895,"lo2":-89.0444,"dy":0.0017,"dx":0.0017,"nx":28,"ny":28,"refTime":"2025-04-12T21:00:00:Z","depth":0,"parameterNumber":2,"parameterNumberName":"U-component_of_WINDS"},"data":[0,0,0,0,0,0,0,0,0,0,0,0,0,0,0,0,0,0,0,0,0,0,0,0,0,0,0,0,0,0,0,0,0,0,0,0,0,0,0,0,0,0,0,0,0,0,0,0,0,0,0,0,0,0,0,0,0,0,-4.2828,-4.2829,0,-4.2923,-4.2924,-4.2925,-4.2855,-4.2852,-4.2849,-4.2846,-4.2941,-4.2946,-4.2951,0,0,0,0,0,0,0,0,0,0,0,0,0,-4.2585,-4.2589,-4.2828,-4.2829,-4.2831,-4.2923,-4.2924,-4.2925,-4.2855,-4.2852,-4.2848,-4.2844,-4.2939,-4.2945,-4.2952,0,0,0,0,0,0,0,0,0,0,0,0,0,-4.2686,-4.2591,-4.2828,-4.2807,-4.2806,-4.2922,-4.2924,-4.2926,-4.2856,-4.2852,-4.2847,-4.2843,-4.2937,-4.2945,-4.2953,-4.3095,0,0,-4.2977,-4.2981,0,0,0,0,0,0,0,0,-4.268,-4.2695,-4.2809,-4.2808,-4.2808,-4.2872,-4.2873,-4.2982,-4.2857,-4.2837,-4.2846,-4.284,-4.2922,-4.2931,-4.2958,-4.3099,-4.3103,-4.2978,-4.2983,-4.2986,-4.2989,0,0,0,0,0,0,0,-4.2673,-4.269,-4.2865,-4.281,-4.281,-4.2792,-4.2801,-4.2893,-4.2904,-4.2838,-4.2834,-4.2846,-4.292,-4.2951,-4.296,-4.3104,-4.2978,-4.2985,-4.299,-4.2993,-4.3364,-4.3369,0,0,0,0,0,0,-4.2669,-4.2685,-4.2862,-4.2868,-4.2731,-4.28,-4.281,-4.2856,-4.2903,-4.2905,-4.285,-4.2842,-4.2939,-4.2951,-4.2963,-4.313,-4.2986,-4.2994,-4.2999,-4.3359,-4.3365,-4.337,0,0,0,0,0,0,-4.2664,-4.2685,-4.2859,-4.2775,-4.2796,-4.2809,-4.2861,-4.286,-4.2891,-4.2911,-4.2912,-4.2879,-4.2936,-4.2952,-4.3062,-4.3132,-4.2998,-4.3005,-4.3353,-4.3361,-4.3368,-4.3466,0,0,0,0,0,0,-4.2657,-4.2684,-4.2738,-4.2777,-4.2801,-4.2957,-4.2866,-4.2866,-4.2905,-4.2896,-4.2939,-4.2942,-4.2934,-4.305,-4.307,-4.3141,-4.3011,-4.3347,-4.3357,-4.3365,-4.3456,-4.3476,-4.3492,0,0,0,0,0,-4.2648,-4.2762,-4.2741,-4.2763,-4.2869,-4.2961,-4.2974,-4.2963,-4.2911,-4.2965,-4.2978,-4.294,-4.3122,-4.3062,-4.3084,-4.3158,-4.3342,-4.3354,-4.3365,-4.3448,-4.3472,-4.3492,0,0,0,0,0,0,-4.273,-4.2767,-4.2744,-4.2874,-4.2915,-4.2949,-4.3017,-4.2989,-4.3045,-4.3035,-4.3019,-4.3029,-4.3144,-4.3163,-4.3095,-4.3297,-4.3224,-4.324,-4.328,-4.3302,-4.332,-4.3311,-4.3018,0,0,0,0,0,-4.2763,-4.2835,-4.2863,-4.2975,-4.2997,-4.3004,-4.3043,-4.3032,-4.3073,-4.309,-4.3111,-4.3152,-4.3218,-4.3262,-4.3324,-4.346,-4.3467,-4.3522,-4.354,-4.3555,-4.3567,-4.3638,-4.3662,-4.3407,-4.3407,-4.3407,0,0,-4.2832,-4.2861,-4.2908,-4.2992,-4.3023,-4.3096,-4.3019,-4.31,-4.3154,-4.3102,-4.3206,-4.3224,-4.3269,-4.3392,-4.3447,-4.3411,-4.364,-4.3569,-4.3581,-4.3585,-4.3652,-4.3676,-4.3697,-4.3415,-4.3414,-4.3413,0,0,-4.2994,-4.3025,-4.312,-4.3153,-4.32,-4.3204,-4.3227,-4.3266,-4.3275,-4.338,-4.3342,-4.3406,-4.3521,-4.3554,-4.3586,-4.3762,-4.3728,-4.3783,-4.3876,-4.3945,-4.3965,-4.3982,-4.4042,-4.4064,-4.3797,-4.3797,-4.3797,0,-4.3073,-4.3184,-4.3173,-4.3257,-4.3294,-4.3252,-4.3347,-4.3379,-4.3444,-4.347,-4.343,-4.3572,-4.36,-4.3728,-4.3771,-4.38,-4.3824,-4.3776,-4.3963,-4.3981,-4.3997,-4.4053,-4.4076,-4.3803,-4.3802,-4.3802,-4.3801,0,-4.3277,-4.3354,-4.3425,-4.3489,-4.3535,-4.3625,-4.3626,-4.3674,-4.3659,-4.3667,-4.3774,-4.3806,-4.3873,-4.3904,-4.389,-4.4031,-4.4006,-4.3965,-4.389,-4.4027,-4.408,-4.4102,-4.3812,-4.381,-4.3808,-4.3806,0,0,-4.349,-4.3548,-4.3574,-4.3601,-4.3651,-4.371,-4.3798,-4.3864,-4.3903,-4.3951,-4.4022,-4.4121,-4.4083,-4.4119,-4.4109,-4.417,-4.4304,-4.4121,-4.4122,-4.4151,-4.4457,-4.4485,-4.451,-4.4284,-4.4288,-4.4291,-4.4452,0,-4.3652,-4.3804,-4.3797,-4.3939,-4.4008,-4.397,-4.4046,-4.4084,-4.4094,-4.4154,-4.4166,-4.4235,-4.4181,-4.4202,-4.4262,-4.4275,-4.4365,-4.4264,-4.4347,-4.435,-4.4333,-4.4538,-4.4568,-4.4718,-4.4473,-4.4477,-4.4479,0,-4.386,-4.3914,-4.4063,-4.4101,-4.413,-4.4198,-4.4257,-4.4317,-4.4359,-4.4362,-4.4403,-4.4383,-4.4471,-4.4397,-4.4516,-4.4448,-4.4482,-4.4494,-4.45,-4.4503,-4.442,-4.4544,-4.4767,-4.4788,-4.4512,-4.451,-4.4507,0,-4.3996,-4.4106,-4.4209,-4.4234,-4.4283,-4.4331,-4.4353,-4.4391,-4.4431,-4.4484,-4.4509,-4.4571,-4.4604,-4.4653,-4.465,-4.4597,-4.4769,-4.4696,-4.4772,-4.4772,-4.4806,-4.4803,-4.5033,-4.4836,-4.4836,-4.4835,-4.4835,0,-4.4174,-4.4266,-4.427,-4.4333,-4.4434,-4.4426,-4.4526,-4.4543,-4.4577,-4.4642,-4.4614,-4.4675,-4.4669,-4.4731,-4.473,-4.4826,-4.4843,-4.4846,-4.4844,-4.4846,-4.4845,-4.4865,-4.4853,-4.4841,-4.484,-4.4839,-4.4838,0,-4.4341,-4.4348,-4.4456,-4.4494,-4.4505,-4.4578,-4.4609,-4.4668,-4.4677,-4.4759,-4.4778,-4.4792,-4.4862,-4.4866,-4.4948,-4.4946,-4.5063,-4.5052,-4.5049,-4.5045,-4.5119,-4.511,-4.5366,-4.5398,-4.5184,-4.5186,-4.5188,0,-4.4452,-4.4522,-4.4567,-4.4608,-4.4633,-4.4701,-4.4741,-4.4737,-4.478,-4.4834,-4.4886,-4.4954,-4.5008,-4.5123,-4.514,-4.5202,-4.5189,-4.5275,-4.5198,-4.5197,-4.5185,-4.518,-4.5185,-4.5288,-4.529,-4.5292,-4.5294,0,-4.4648,-4.4648,-4.4708,-4.4769,-4.4819,-4.4867,-4.4911,-4.4947,-4.4947,-4.4997,-4.5069,-4.5112,-4.5195,-4.5263,-4.5323,-4.5345,-4.5319,-4.5319,-4.5339,-4.5339,-4.5333,-4.5334,-4.5085,-4.5312,-4.531,-4.5308,-4.5307,-4.5307,-4.4787,-4.4846,-4.4887,-4.4954,-4.4988,-4.503,-4.5087,-4.5103,-4.5163,-4.5231,-4.5225,-4.5305,-4.5345,-4.5424,-4.5451,-4.5513,-4.5483,-4.5513,-4.552,-4.5526,-4.5532,-4.5327,-4.5524,-4.5524,-4.5524,-4.5523,-4.5523,0,-4.4978,-4.5003,-4.5065,-4.5128,-4.5181,-4.5154,-4.5202,-4.5247,-4.5318,-4.5359,-4.5412,-4.5495,-4.5561,-4.5583,-4.5647,-4.5692,-4.5681,-4.5708,-4.5702,-4.5707,-4.5557,-4.5531,-4.5715,-4.5715,-4.5715,-4.5715,-4.5715,-4.5715,-4.5083,-4.518,-4.5186,-4.5299,-4.5323,-4.5401,-4.543,-4.5469,-4.5501,-4.5594,-4.5648,-4.5663,-4.5696,-4.5762,-4.5821,-4.5826,-4.5849,-4.588,-4.588,-4.5738,-4.5718,-4.57,-4.5675,-4.5886,-4.5886,-4.6024,-4.6025,-4.6026]},{"header":{"parameterUnit":"m.s-1","parameterCategory":1,"la1":30.2991,"la2":30.254,"lo1":-89.0895,"lo2":-89.0444,"dy":0.0017,"dx":0.0017,"nx":28,"ny":28,"refTime":"2025-04-12T21:00:00:Z","depth":0,"parameterNumber":3,"parameterNumberName":"V-component_of_WINDS"},"data":[0,0,0,0,0,0,0,0,0,0,0,0,0,0,0,0,0,0,0,0,0,0,0,0,0,0,0,0,0,0,0,0,0,0,0,0,0,0,0,0,0,0,0,0,0,0,0,0,0,0,0,0,0,0,0,0,0,0,0.9223,0.9223,0,0.9231,0.9231,0.9231,0.9188,0.9187,0.9186,0.9185,0.9191,0.9193,0.9194,0,0,0,0,0,0,0,0,0,0,0,0,0,0.9171,0.9173,0.9223,0.9223,0.9224,0.9231,0.9231,0.9231,0.9188,0.9187,0.9186,0.9184,0.9191,0.9192,0.9194,0,0,0,0,0,0,0,0,0,0,0,0,0,0.9188,0.9173,0.9223,0.9203,0.9201,0.9231,0.9231,0.9231,0.9189,0.9187,0.9185,0.9183,0.919,0.9192,0.9194,0.9243,0,0,0.92,0.9201,0,0,0,0,0,0,0,0,0.9187,0.919,0.9206,0.9205,0.9203,0.9207,0.9215,0.9235,0.9189,0.9194,0.9185,0.9183,0.9198,0.9199,0.9205,0.9243,0.9244,0.92,0.9202,0.9202,0.9203,0,0,0,0,0,0,0,0.9186,0.9189,0.9226,0.9206,0.9204,0.9194,0.9194,0.9219,0.9206,0.9193,0.919,0.9192,0.9197,0.9203,0.9204,0.9244,0.92,0.9202,0.9203,0.9204,0.9324,0.9326,0,0,0,0,0,0,0.9188,0.9189,0.9226,0.9227,0.919,0.9196,0.9196,0.9207,0.9205,0.9203,0.9193,0.9189,0.92,0.9202,0.9204,0.9262,0.9202,0.9204,0.9205,0.9322,0.9325,0.9327,0,0,0,0,0,0,0.9187,0.9191,0.9226,0.9207,0.921,0.9199,0.9212,0.9208,0.9214,0.9206,0.9203,0.9202,0.9199,0.9202,0.9234,0.9261,0.9205,0.9207,0.932,0.9323,0.9326,0.9377,0,0,0,0,0,0,0.9185,0.9191,0.921,0.9208,0.9212,0.9255,0.9213,0.921,0.9218,0.9214,0.9213,0.9211,0.9198,0.9231,0.9236,0.9263,0.9209,0.9317,0.9321,0.9325,0.9373,0.9381,0.9389,0,0,0,0,0,0.9184,0.9223,0.9211,0.9216,0.9234,0.9257,0.9259,0.9243,0.9221,0.9239,0.9234,0.9211,0.9258,0.9235,0.924,0.9268,0.9316,0.932,0.9325,0.9369,0.938,0.9389,0,0,0,0,0,0,0.9228,0.9223,0.9209,0.9249,0.9254,0.925,0.9272,0.9255,0.9266,0.9261,0.9241,0.9241,0.9277,0.9276,0.925,0.9316,0.9283,0.9289,0.9315,0.9325,0.9333,0.9332,0.921,0,0,0,0,0,0.9243,0.9262,0.9256,0.9292,0.9295,0.9284,0.9293,0.9281,0.9285,0.9286,0.9283,0.9288,0.9304,0.9314,0.9328,0.9373,0.9372,0.9395,0.9403,0.9409,0.9414,0.9438,0.9448,0.9342,0.9342,0.9342,0,0,0.9272,0.9272,0.9285,0.9301,0.9303,0.9324,0.9286,0.9308,0.9323,0.929,0.932,0.9318,0.9322,0.9361,0.9378,0.9361,0.9444,0.9415,0.9421,0.9422,0.9444,0.9454,0.9463,0.9345,0.9344,0.9344,0,0,0.9337,0.9339,0.9369,0.9373,0.9378,0.937,0.9378,0.9377,0.9374,0.9405,0.938,0.9398,0.9426,0.943,0.9435,0.9504,0.9484,0.9509,0.955,0.9574,0.9583,0.959,0.9614,0.9623,0.9514,0.9515,0.9515,0,0.9373,0.9403,0.9387,0.9412,0.942,0.9392,0.9422,0.9427,0.9436,0.9442,0.9423,0.9458,0.9459,0.9498,0.9515,0.9521,0.9529,0.9509,0.9583,0.959,0.9597,0.962,0.9629,0.9518,0.9517,0.9517,0.9517,0,0.9448,0.9469,0.9493,0.9503,0.9514,0.9542,0.953,0.9543,0.953,0.9525,0.9557,0.9557,0.9571,0.958,0.9567,0.9618,0.9607,0.9586,0.9552,0.961,0.9631,0.964,0.9522,0.9521,0.952,0.9519,0,0,0.9538,0.9541,0.955,0.9555,0.9559,0.9575,0.9602,0.9616,0.9628,0.9635,0.9657,0.9683,0.9663,0.967,0.9658,0.9679,0.9734,0.9655,0.9655,0.9669,0.979,0.9805,0.9816,0.9721,0.9723,0.9724,0.9789,0,0.9601,0.9647,0.9635,0.9681,0.9701,0.9675,0.9699,0.9704,0.97,0.9716,0.9712,0.973,0.9703,0.9707,0.9727,0.9723,0.9757,0.9718,0.9741,0.9742,0.9739,0.9827,0.9843,0.9904,0.9798,0.9799,0.98,0,0.968,0.9692,0.9741,0.9743,0.9751,0.9772,0.9785,0.9801,0.9807,0.9802,0.9811,0.9795,0.9822,0.9789,0.9826,0.9799,0.9808,0.9808,0.981,0.981,0.9774,0.9829,0.9924,0.9933,0.9813,0.9812,0.9811,0,0.9741,0.977,0.9802,0.9807,0.9811,0.9827,0.9829,0.9833,0.9843,0.9854,0.986,0.9875,0.9882,0.9894,0.9882,0.986,0.9921,0.9887,0.9918,0.9918,0.993,0.993,1.0027,0.9938,0.9938,0.9938,0.9937,0,0.9812,0.9843,0.983,0.985,0.9884,0.987,0.9903,0.9902,0.9907,0.9926,0.9906,0.9924,0.9908,0.9926,0.9917,0.9949,0.9953,0.995,0.9947,0.9951,0.9951,0.9956,0.9951,0.994,0.9939,0.9939,0.9939,0,0.9885,0.9878,0.9912,0.9913,0.9915,0.9939,0.994,0.9959,0.9954,0.998,0.9985,0.9977,0.9997,0.9987,1.0007,1.0001,1.0042,1.0034,1.0041,1.0038,1.0069,1.0066,1.0172,1.0185,1.0088,1.0089,1.009,0,0.9931,0.9954,0.9958,0.997,0.9974,0.9994,1.0004,0.9991,1.0003,1.0013,1.003,1.0048,1.0062,1.0095,1.0091,1.0106,1.0098,1.0134,1.01,1.0104,1.0098,1.0096,1.0098,1.014,1.0142,1.0142,1.0143,0,1.0012,1.0008,1.0024,1.004,1.0053,1.0064,1.0074,1.0085,1.0073,1.0087,1.0107,1.0118,1.014,1.0158,1.0172,1.0174,1.0157,1.0154,1.0162,1.0166,1.0169,1.0167,1.0058,1.0152,1.0151,1.015,1.015,1.0149,1.0072,1.0092,1.0098,1.0117,1.0124,1.0134,1.0152,1.015,1.0167,1.0184,1.0176,1.0199,1.0206,1.0223,1.0227,1.0246,1.0231,1.0242,1.0245,1.0248,1.0252,1.0167,1.0248,1.0248,1.0248,1.0247,1.0247,0,1.0152,1.0155,1.0173,1.0188,1.0203,1.0187,1.0198,1.0211,1.0233,1.024,1.0255,1.0279,1.0297,1.0296,1.0312,1.0327,1.032,1.0332,1.033,1.0331,1.0264,1.0255,1.0338,1.0338,1.0337,1.0337,1.0337,1.0337,1.0195,1.0228,1.0225,1.026,1.0264,1.0287,1.0295,1.0304,1.031,1.0338,1.0353,1.0353,1.0357,1.0374,1.039,1.0389,1.0396,1.0411,1.0407,1.0344,1.0335,1.0327,1.0318,1.0412,1.0413,1.0472,1.0472,1.0473]}]]